[[{"header":{"parameterUnit":"m.s-1","parameterCategory":2,"la1":30.2991,"la2":30.254,"lo1":-89.0895,"lo2":-89.0444,"dy":0.0017,"dx":0.0017,"nx":28,"ny":28,"refTime":"2025-02-09T09:00:00:Z","depth":"0","parameterNumber":2,"parameterNumberName":"U-component_of_CURRENTS"},"data":[0,0,0,0,0,0,0,0,0,0,0,0,0,0,0,0,0,0,0,0,0,0,0,0,0,0,0,0,0,0,0,0,0,0,0,0,0,0,0,0,0,0,0,0,0,0,0,0,0,0,0,0,0,0,0,0,0,0,0.3633,0.3633,0,0.3668,0.3668,0.3668,0.3653,0.3652,0.3652,0.3651,0.3657,0.3658,0.3659,0,0,0,0,0,0,0,0,0,0,0,0,0,0.3589,0.3589,0.3633,0.3633,0.3634,0.3668,0.3668,0.3669,0.3653,0.3652,0.3651,0.3651,0.3657,0.3658,0.3659,0,0,0,0,0,0,0,0,0,0,0,0,0,0.3613,0.359,0.3633,0.3632,0.3632,0.3668,0.3668,0.3669,0.3653,0.3652,0.3651,0.365,0.3657,0.3658,0.3659,0.3688,0,0,0.3663,0.3664,0,0,0,0,0,0,0,0,0.3611,0.3614,0.3631,0.3632,0.3632,0.3657,0.3655,0.3674,0.3654,0.3643,0.3651,0.365,0.3656,0.3658,0.3665,0.3688,0.3689,0.3663,0.3664,0.3665,0.3665,0,0,0,0,0,0,0,0.361,0.3613,0.3645,0.3632,0.3633,0.3642,0.3644,0.3659,0.3654,0.3644,0.3644,0.3651,0.3656,0.3663,0.3665,0.3689,0.3663,0.3664,0.3665,0.3666,0.3788,0.3791,0,0,0,0,0,0,0.3608,0.3611,0.3644,0.3646,0.3621,0.3644,0.3646,0.3648,0.3654,0.3655,0.3652,0.365,0.3662,0.3663,0.3665,0.3745,0.3664,0.3666,0.3666,0.3786,0.3789,0.3791,0,0,0,0,0,0,0.3607,0.3611,0.3642,0.3631,0.3636,0.3646,0.3649,0.365,0.3661,0.366,0.366,0.3663,0.3661,0.3663,0.3695,0.3743,0.3666,0.3667,0.3783,0.3787,0.379,0.3876,0,0,0,0,0,0,0.3605,0.361,0.3613,0.3631,0.3636,0.3674,0.365,0.3651,0.3668,0.3666,0.367,0.3669,0.366,0.3693,0.3696,0.3744,0.3668,0.378,0.3784,0.3789,0.387,0.3883,0.3893,0,0,0,0,0,0.3604,0.3613,0.3613,0.3617,0.3639,0.3675,0.3679,0.3681,0.367,0.3685,0.3691,0.3669,0.3725,0.3696,0.3699,0.3748,0.3777,0.3783,0.3789,0.3865,0.388,0.3893,0,0,0,0,0,0,0.3593,0.3614,0.3613,0.3627,0.3654,0.3673,0.3688,0.369,0.3708,0.3706,0.3696,0.3697,0.3747,0.3737,0.3705,0.3799,0.3751,0.3757,0.3808,0.3822,0.3833,0.3882,0.3669,0,0,0,0,0,0.3594,0.3606,0.3631,0.3644,0.3659,0.3676,0.369,0.3697,0.3715,0.3721,0.3723,0.3738,0.3774,0.3787,0.3807,0.3853,0.3903,0.389,0.3902,0.3911,0.3955,0.4062,0.4087,0.381,0.381,0.381,0,0,0.3593,0.3607,0.3612,0.3643,0.3662,0.3703,0.3681,0.3714,0.3754,0.3721,0.3767,0.3776,0.3796,0.3853,0.3875,0.3848,0.4019,0.3918,0.3926,0.3966,0.407,0.4098,0.4122,0.3814,0.3813,0.3813,0,0,0.3609,0.3613,0.3635,0.3665,0.3702,0.3724,0.3737,0.3766,0.3784,0.3829,0.383,0.3879,0.3899,0.3947,0.3969,0.406,0.4076,0.4052,0.415,0.4252,0.4277,0.4298,0.4409,0.444,0.4057,0.4057,0.4057,0,0.3607,0.3641,0.3649,0.3689,0.3723,0.3738,0.3787,0.3817,0.3853,0.389,0.3853,0.3959,0.3959,0.4079,0.4109,0.409,0.415,0.409,0.4269,0.4292,0.4313,0.4421,0.4454,0.4062,0.4062,0.4061,0.4061,0,0.3647,0.3682,0.3703,0.3758,0.3797,0.3842,0.3889,0.3931,0.3946,0.3979,0.4081,0.4102,0.417,0.4179,0.417,0.4328,0.4324,0.427,0.4235,0.4346,0.4452,0.4486,0.4069,0.4067,0.4066,0.4065,0,0,0.3628,0.3714,0.3722,0.3765,0.3841,0.3876,0.3962,0.405,0.413,0.4158,0.4278,0.4335,0.4349,0.438,0.4388,0.4482,0.4669,0.4446,0.4449,0.456,0.4921,0.4863,0.4892,0.4642,0.4648,0.4653,0.494,0,0.3662,0.3741,0.3785,0.3876,0.3925,0.3986,0.4072,0.4153,0.4221,0.4336,0.4394,0.4504,0.4425,0.4488,0.4562,0.4652,0.476,0.4599,0.4796,0.4803,0.4739,0.493,0.4746,0.4981,0.4972,0.4978,0.4982,0,0.3687,0.3742,0.3827,0.395,0.398,0.4038,0.4191,0.4277,0.4439,0.45,0.4611,0.4668,0.483,0.474,0.4953,0.4852,0.4908,0.4964,0.4974,0.492,0.4807,0.4867,0.5042,0.4902,0.5033,0.5029,0.5025,0,0.3657,0.3773,0.3841,0.3878,0.4015,0.4075,0.4162,0.4318,0.4419,0.4635,0.4733,0.4898,0.4988,0.5107,0.5178,0.5099,0.5415,0.5306,0.5319,0.5315,0.5202,0.5177,0.5269,0.549,0.549,0.5489,0.5488,0,0.3674,0.3731,0.3827,0.3862,0.3978,0.407,0.4218,0.4339,0.4528,0.4668,0.481,0.4964,0.5083,0.5244,0.5302,0.5428,0.5507,0.5414,0.5411,0.5225,0.52,0.5102,0.5037,0.55,0.5497,0.5495,0.5493,0,0.3646,0.37,0.3787,0.3916,0.3962,0.4044,0.4231,0.4342,0.4523,0.4722,0.4809,0.5049,0.5271,0.5393,0.5614,0.5568,0.5583,0.5737,0.5517,0.5482,0.5311,0.5257,0.5224,0.5063,0.5828,0.5829,0.5829,0,0.3652,0.3686,0.3805,0.3857,0.3918,0.4043,0.4138,0.4324,0.4446,0.4768,0.4867,0.5153,0.5324,0.5636,0.5685,0.584,0.5637,0.572,0.5525,0.5353,0.5294,0.506,0.4907,0.5426,0.5423,0.5421,0.5419,0,0.3687,0.371,0.3782,0.3865,0.3947,0.4049,0.419,0.428,0.4505,0.4669,0.4923,0.5111,0.5395,0.5487,0.5664,0.5715,0.5449,0.5674,0.5562,0.5078,0.477,0.4592,0.5191,0.5399,0.5401,0.5402,0.5403,0.5404,0.3726,0.3757,0.3822,0.3896,0.3977,0.4045,0.4079,0.4223,0.4387,0.4575,0.4841,0.5006,0.5234,0.5472,0.5491,0.5381,0.5327,0.5227,0.5216,0.5023,0.4741,0.5308,0.5446,0.5448,0.545,0.5451,0.5453,0,0.3776,0.379,0.3856,0.3907,0.3934,0.3993,0.4101,0.4092,0.4188,0.4408,0.4578,0.479,0.4939,0.5069,0.5109,0.4942,0.4684,0.4824,0.4455,0.4353,0.4945,0.4795,0.4715,0.4715,0.4715,0.4716,0.4716,0.4716,0.3808,0.3842,0.3834,0.3845,0.3863,0.3834,0.3851,0.3847,0.3945,0.4036,0.4108,0.4275,0.4598,0.4878,0.4771,0.4637,0.4245,0.4102,0.4065,0.4492,0.4526,0.4558,0.44,0.4238,0.4238,0.3255,0.3248,0.3243]},{"header":{"parameterUnit":"m.s-1","parameterCategory":2,"la1":30.2991,"la2":30.254,"lo1":-89.0895,"lo2":-89.0444,"dy":0.0017,"dx":0.0017,"nx":28,"ny":28,"refTime":"2025-02-09T09:00:00:Z","depth":"0","parameterNumber":3,"parameterNumberName":"V-component_of_CURRENTS"},"data":[0,0,0,0,0,0,0,0,0,0,0,0,0,0,0,0,0,0,0,0,0,0,0,0,0,0,0,0,0,0,0,0,0,0,0,0,0,0,0,0,0,0,0,0,0,0,0,0,0,0,0,0,0,0,0,0,0,0,0.0017,0.0016,0,-0.0065,-0.0066,-0.0067,-0.0129,-0.0129,-0.013,-0.013,-0.0257,-0.026,-0.0263,0,0,0,0,0,0,0,0,0,0,0,0,0,0.0054,0.0054,0.0017,0.0016,0.0016,-0.0065,-0.0066,-0.0067,-0.0129,-0.0129,-0.013,-0.013,-0.0256,-0.026,-0.0264,0,0,0,0,0,0,0,0,0,0,0,0,0,0.001,0.0054,0.0017,-0.0023,-0.0028,-0.0064,-0.0066,-0.0068,-0.0129,-0.0129,-0.013,-0.0131,-0.0255,-0.026,-0.0264,-0.0281,0,0,-0.0278,-0.028,0,0,0,0,0,0,0,0,0.0013,0.0009,-0.0017,-0.0021,-0.0025,-0.0085,-0.0099,-0.0141,-0.0129,-0.0093,-0.013,-0.0131,-0.0202,-0.0211,-0.0228,-0.0287,-0.0293,-0.0278,-0.0281,-0.0283,-0.0285,0,0,0,0,0,0,0,0.0016,0.0011,-0.0018,-0.0017,-0.0023,-0.006,-0.0066,-0.0108,-0.0146,-0.0096,-0.01,-0.0106,-0.0205,-0.0223,-0.0231,-0.0295,-0.0278,-0.0282,-0.0285,-0.0287,-0.0373,-0.0373,0,0,0,0,0,0,0.0035,0.0015,-0.0015,-0.002,-0.0005,-0.006,-0.0067,-0.0067,-0.0145,-0.0156,-0.0105,-0.0108,-0.0215,-0.0226,-0.0236,-0.0246,-0.0283,-0.0287,-0.029,-0.0374,-0.0373,-0.0373,0,0,0,0,0,0,0.0036,0.0033,-0.0012,-0.0003,-0.0011,-0.0059,-0.0059,-0.0069,-0.0084,-0.0151,-0.0163,-0.011,-0.0216,-0.023,-0.0263,-0.0252,-0.029,-0.0294,-0.0374,-0.0374,-0.0373,-0.0276,0,0,0,0,0,0,0.0037,0.0034,0.0039,-0.0001,-0.0011,-0.0021,-0.0059,-0.007,-0.0086,-0.0091,-0.0159,-0.0172,-0.0218,-0.0256,-0.0268,-0.0259,-0.0297,-0.0375,-0.0374,-0.0373,-0.028,-0.0272,-0.0265,0,0,0,0,0,0.0039,0.0057,0.004,0.0036,-0.0002,-0.002,-0.0028,-0.0066,-0.0085,-0.0084,-0.013,-0.017,-0.0259,-0.0259,-0.0273,-0.0265,-0.0375,-0.0374,-0.0373,-0.0283,-0.0273,-0.0265,0,0,0,0,0,0,0.0076,0.0051,0.0032,0.004,0.0016,-0.0029,-0.0031,-0.0058,-0.0094,-0.0098,-0.0164,-0.0179,-0.0206,-0.0248,-0.0246,-0.0288,-0.0324,-0.0326,-0.025,-0.0242,-0.0235,-0.0203,-0.0301,0,0,0,0,0,0.0087,0.0093,0.0059,0.0065,0.0058,0.0014,0.0001,-0.0022,-0.0058,-0.0074,-0.0121,-0.0171,-0.0213,-0.0236,-0.0279,-0.03,-0.0316,-0.0305,-0.0298,-0.0292,-0.0276,-0.0292,-0.0285,-0.0369,-0.0369,-0.0369,0,0,0.0103,0.009,0.0092,0.0073,0.005,0.0055,0.0005,-0.0003,-0.0002,-0.0082,-0.0095,-0.0148,-0.0213,-0.0237,-0.0253,-0.027,-0.0273,-0.029,-0.0284,-0.0272,-0.029,-0.0282,-0.0274,-0.0369,-0.0369,-0.0369,0,0,0.0145,0.0127,0.0147,0.0135,0.0113,0.0088,0.0092,0.0054,0.0035,0.0014,-0.0042,-0.0084,-0.0146,-0.0189,-0.0221,-0.0201,-0.0234,-0.0216,-0.0155,-0.0171,-0.0163,-0.0157,-0.0145,-0.0139,-0.0212,-0.0212,-0.0212,0,0.0164,0.0185,0.015,0.0166,0.0167,0.0112,0.0137,0.011,0.0066,0.006,0.0025,-0.0057,-0.0124,-0.0147,-0.0147,-0.0184,-0.0184,-0.018,-0.0159,-0.0153,-0.0149,-0.0138,-0.0132,-0.0207,-0.0208,-0.0208,-0.0208,0,0.022,0.0236,0.0249,0.0253,0.0248,0.026,0.0226,0.0217,0.0184,0.0155,0.0126,0.0038,-0.0008,-0.0041,-0.0094,-0.0093,-0.0099,-0.0145,-0.0174,-0.0134,-0.0126,-0.0121,-0.02,-0.0202,-0.0203,-0.0204,0,0,0.0271,0.0287,0.0292,0.0314,0.0298,0.0305,0.0311,0.0305,0.0328,0.026,0.029,0.0177,0.0131,0.0092,0.0021,-0.0004,0.0014,-0.0052,-0.0055,-0.0026,0.0013,0.0006,0.001,-0.0021,-0.002,-0.0019,0.0014,0,0.0327,0.0387,0.0373,0.0428,0.0459,0.0421,0.044,0.0425,0.0401,0.0416,0.0322,0.0318,0.0182,0.0179,0.0121,0.0059,0.0028,0.0012,-0.0042,-0.0043,-0.0044,0.0014,-0.0001,0.0026,0.0018,0.0018,0.0019,0,0.0391,0.0424,0.0493,0.0533,0.0544,0.0568,0.06,0.0612,0.0604,0.0591,0.055,0.0492,0.0444,0.0331,0.0219,0.0223,0.0121,0.0057,0.0055,0.0019,-0.0043,-0.0022,0.0034,-0.0244,0.0025,0.0025,0.0024,0,0.0458,0.0509,0.0572,0.0584,0.0617,0.0646,0.0668,0.0671,0.0726,0.0728,0.079,0.0675,0.0678,0.0528,0.0364,0.0306,0.0271,0.0168,0.0062,0.0062,0.0022,0.0016,-0.0187,0.0084,0.0084,0.0084,0.0084,0,0.0532,0.0581,0.0613,0.065,0.0748,0.0733,0.084,0.0842,0.0901,0.1026,0.0898,0.0998,0.073,0.0671,0.0468,0.0312,0.0343,0.01,0.0073,0.0057,0.0054,-0.0214,-0.0373,0.0085,0.0085,0.0085,0.0085,0,0.0608,0.062,0.0702,0.0755,0.0788,0.0863,0.0987,0.1071,0.1105,0.1279,0.131,0.1268,0.1199,0.0938,0.0732,0.0485,0.0162,0.0242,0.0256,0.0229,-0.0173,-0.0325,-0.0525,-0.0657,0.0123,0.0123,0.0123,0,0.0658,0.0709,0.08,0.0878,0.0914,0.1029,0.1128,0.1177,0.1302,0.1486,0.1607,0.1585,0.1639,0.1323,0.0876,0.0531,0.0226,0.0249,0.0095,-0.0172,-0.0362,-0.0481,-0.0587,0.009,0.009,0.009,0.0089,0,0.0772,0.0796,0.0874,0.1028,0.1142,0.1289,0.1443,0.1579,0.1697,0.1869,0.2121,0.2197,0.1881,0.153,0.0987,0.0707,0.0033,0.0233,-0.0058,-0.0406,-0.0534,-0.0679,0.0059,0.0088,0.0088,0.0088,0.0088,0.0088,0.0875,0.0953,0.1059,0.1207,0.1353,0.1564,0.1728,0.1925,0.2186,0.2498,0.252,0.269,0.2081,0.1355,0.0927,0.0046,0.0034,-0.0249,-0.0403,-0.0492,-0.0657,0.0098,0.0094,0.0094,0.0094,0.0094,0.0094,0,0.1015,0.11,0.1242,0.1435,0.1626,0.1666,0.1955,0.2156,0.2514,0.2786,0.3016,0.2796,0.2068,0.1265,0.009,-0.0493,-0.0742,-0.0824,-0.1037,-0.1112,-0.0447,-0.0491,-0.0605,-0.0605,-0.0604,-0.0604,-0.0604,-0.0603,0.1103,0.1254,0.1312,0.164,0.1793,0.208,0.2262,0.257,0.2816,0.318,0.3265,0.3277,0.2582,0.0549,-0.0813,-0.1112,-0.1565,-0.1644,-0.1845,-0.145,-0.141,-0.1372,-0.1453,-0.1767,-0.1768,-0.2461,-0.2468,-0.2474]}],[{"header":{"parameterUnit":"m.s-1","parameterCategory":2,"la1":30.2991,"la2":30.254,"lo1":-89.0895,"lo2":-89.0444,"dy":0.0017,"dx":0.0017,"nx":28,"ny":28,"refTime":"2025-02-09T09:00:00:Z","depth":"2","parameterNumber":2,"parameterNumberName":"U-component_of_CURRENTS"},"data":[0,0,0,0,0,0,0,0,0,0,0,0,0,0,0,0,0,0,0,0,0,0,0,0,0,0,0,0,0,0,0,0,0,0,0,0,0,0,0,0,0,0,0,0,0,0,0,0,0,0,0,0,0,0,0,0,0,0,0.301,0.3011,0,0.3062,0.3062,0.3062,0.3066,0.3066,0.3066,0.3065,0.3084,0.3085,0.3085,0,0,0,0,0,0,0,0,0,0,0,0,0,0.2915,0.2917,0.301,0.3011,0.3012,0.3062,0.3062,0.3062,0.3066,0.3066,0.3065,0.3065,0.3084,0.3084,0.3085,0,0,0,0,0,0,0,0,0,0,0,0,0,0.2957,0.2917,0.301,0.3022,0.3024,0.3062,0.3062,0.3062,0.3066,0.3066,0.3065,0.3065,0.3083,0.3084,0.3085,0.31,0,0,0.3089,0.3089,0,0,0,0,0,0,0,0,0.2955,0.296,0.302,0.3022,0.3024,0.306,0.3036,0.3075,0.3066,0.3047,0.3065,0.3065,0.3075,0.3077,0.3083,0.31,0.3101,0.3089,0.309,0.309,0.309,0,0,0,0,0,0,0,0.2952,0.2958,0.3027,0.3021,0.3023,0.3026,0.3031,0.3043,0.3059,0.3048,0.3049,0.3061,0.3076,0.3082,0.3084,0.3102,0.3089,0.309,0.309,0.3091,0.3192,0.3193,0,0,0,0,0,0,0.2953,0.2955,0.3025,0.3029,0.2992,0.3028,0.3034,0.3046,0.306,0.3063,0.3061,0.3061,0.308,0.3082,0.3084,0.315,0.309,0.3091,0.3092,0.319,0.3192,0.3194,0,0,0,0,0,0,0.2951,0.2959,0.3023,0.2996,0.3005,0.3031,0.3044,0.3047,0.3065,0.3071,0.3072,0.3078,0.308,0.3083,0.3116,0.3148,0.3091,0.3092,0.3187,0.319,0.3193,0.3249,0,0,0,0,0,0,0.2948,0.2958,0.297,0.2996,0.3006,0.3058,0.3045,0.3049,0.3074,0.3074,0.3085,0.3086,0.308,0.3114,0.3117,0.3149,0.3093,0.3185,0.3189,0.3192,0.3245,0.3254,0.3262,0,0,0,0,0,0.2944,0.2961,0.297,0.2979,0.3021,0.306,0.3065,0.3079,0.3075,0.3091,0.3103,0.3086,0.314,0.3117,0.3119,0.3152,0.3183,0.3187,0.3192,0.3241,0.3252,0.3262,0,0,0,0,0,0,0.2921,0.2964,0.2974,0.3002,0.3036,0.3062,0.308,0.3089,0.3111,0.3112,0.3108,0.3111,0.3155,0.3149,0.3123,0.3195,0.316,0.3166,0.3197,0.3207,0.3216,0.3225,0.3094,0,0,0,0,0,0.2924,0.295,0.2989,0.3013,0.3032,0.3059,0.3077,0.3091,0.3113,0.3122,0.3131,0.3148,0.3175,0.3186,0.3205,0.324,0.3264,0.3266,0.3274,0.3281,0.3292,0.337,0.3387,0.3209,0.3209,0.3209,0,0,0.292,0.295,0.2962,0.3011,0.3036,0.3071,0.3068,0.3105,0.3135,0.3121,0.3162,0.3178,0.3193,0.3237,0.3255,0.3235,0.3346,0.3287,0.3292,0.33,0.3377,0.3394,0.3409,0.3212,0.3212,0.3211,0,0,0.2926,0.2955,0.298,0.3014,0.3065,0.3087,0.3102,0.3141,0.3162,0.3205,0.321,0.325,0.3277,0.3303,0.3317,0.3385,0.339,0.3389,0.3435,0.3511,0.3526,0.3539,0.3596,0.3614,0.339,0.339,0.339,0,0.2919,0.2958,0.2993,0.303,0.3061,0.3096,0.3131,0.3163,0.3207,0.3238,0.3226,0.3306,0.3313,0.3382,0.3405,0.3404,0.3443,0.3391,0.3522,0.3536,0.3549,0.3604,0.3623,0.3393,0.3393,0.3392,0.3392,0,0.2946,0.2982,0.3003,0.3062,0.31,0.3138,0.3191,0.3231,0.3258,0.3293,0.3369,0.3392,0.3442,0.3452,0.3447,0.3545,0.3542,0.3525,0.3494,0.357,0.3623,0.3642,0.3398,0.3397,0.3396,0.3395,0,0,0.2911,0.3002,0.3009,0.3043,0.3122,0.3152,0.322,0.3292,0.3348,0.3392,0.3467,0.3517,0.354,0.356,0.3569,0.3626,0.3745,0.3617,0.3619,0.3669,0.3914,0.3862,0.3877,0.3757,0.376,0.3763,0.3914,0,0.2921,0.2984,0.3034,0.3097,0.3135,0.32,0.3262,0.3334,0.34,0.3482,0.3531,0.3608,0.358,0.3621,0.3675,0.374,0.3799,0.3706,0.3836,0.384,0.3781,0.3899,0.3593,0.3698,0.3933,0.3936,0.3938,0,0.2925,0.2972,0.303,0.3124,0.3149,0.3193,0.3306,0.337,0.3497,0.3557,0.3645,0.3695,0.3801,0.3758,0.3909,0.3856,0.3892,0.3925,0.3931,0.3877,0.3824,0.366,0.3723,0.397,0.3968,0.3965,0.3963,0,0.2873,0.2966,0.3011,0.3043,0.3154,0.3198,0.3262,0.3388,0.3473,0.362,0.3706,0.3818,0.3911,0.3975,0.4047,0.3999,0.4204,0.4144,0.4127,0.4123,0.3884,0.3853,0.4249,0.4249,0.4248,0.4248,0.4247,0,0.2858,0.2893,0.299,0.3014,0.3086,0.3172,0.3271,0.3362,0.3517,0.362,0.3742,0.3854,0.3977,0.4097,0.4114,0.4201,0.4268,0.417,0.4176,0.3895,0.3865,0.4108,0.4089,0.4254,0.4252,0.4251,0.425,0,0.2794,0.2856,0.2914,0.3023,0.3062,0.3112,0.3272,0.3347,0.351,0.3654,0.3715,0.3941,0.41,0.4197,0.4338,0.431,0.4375,0.4375,0.4035,0.3998,0.422,0.4203,0.4382,0.4382,0.4381,0.4381,0.4381,0,0.2769,0.2791,0.2899,0.2933,0.2983,0.3076,0.3143,0.3318,0.3415,0.3685,0.3752,0.3987,0.4104,0.4319,0.4333,0.4389,0.4419,0.4122,0.3969,0.4255,0.4243,0.4225,0.4209,0.3673,0.3667,0.3663,0.3659,0,0.272,0.2757,0.28,0.2871,0.2934,0.3008,0.3123,0.3193,0.3393,0.3533,0.372,0.3845,0.4086,0.4043,0.4158,0.413,0.4087,0.4027,0.4448,0.3688,0.36,0.3583,0.3588,0.3616,0.362,0.3623,0.3625,0.3627,0.2675,0.2695,0.2749,0.2793,0.2865,0.2902,0.2905,0.3041,0.3156,0.3306,0.3534,0.3626,0.3762,0.3789,0.3712,0.3669,0.3931,0.3746,0.3755,0.3771,0.3664,0.358,0.3571,0.3575,0.3579,0.3582,0.3584,0,0.2612,0.2637,0.2671,0.2709,0.2706,0.2792,0.286,0.2827,0.2874,0.3081,0.3214,0.3065,0.3116,0.3226,0.311,0.3153,0.3062,0.3015,0.2852,0.2902,0.2945,0.2787,0.2466,0.2462,0.2458,0.2454,0,0,0.2591,0.2573,0.257,0.2517,0.2544,0.249,0.2477,0.2467,0.2562,0.2582,0.2646,0.2964,0.3149,0.2744,0.2736,0.2567,0.269,0.2475,0.339,0.3249,0.3285,0.3413,0.3235,0,0,0,0,0]},{"header":{"parameterUnit":"m.s-1","parameterCategory":2,"la1":30.2991,"la2":30.254,"lo1":-89.0895,"lo2":-89.0444,"dy":0.0017,"dx":0.0017,"nx":28,"ny":28,"refTime":"2025-02-09T09:00:00:Z","depth":"2","parameterNumber":3,"parameterNumberName":"V-component_of_CURRENTS"},"data":[0,0,0,0,0,0,0,0,0,0,0,0,0,0,0,0,0,0,0,0,0,0,0,0,0,0,0,0,0,0,0,0,0,0,0,0,0,0,0,0,0,0,0,0,0,0,0,0,0,0,0,0,0,0,0,0,0,0,-0.0005,-0.0006,0,-0.0079,-0.008,-0.0081,-0.0135,-0.0135,-0.0135,-0.0135,-0.0239,-0.0241,-0.0243,0,0,0,0,0,0,0,0,0,0,0,0,0,0.0027,0.0027,-0.0005,-0.0006,-0.0006,-0.0079,-0.008,-0.0081,-0.0135,-0.0135,-0.0135,-0.0135,-0.0238,-0.0241,-0.0244,0,0,0,0,0,0,0,0,0,0,0,0,0,-0.0013,0.0027,-0.0005,-0.004,-0.0044,-0.0079,-0.008,-0.0082,-0.0134,-0.0135,-0.0135,-0.0136,-0.0237,-0.024,-0.0244,-0.0259,0,0,-0.0256,-0.0257,0,0,0,0,0,0,0,0,-0.0011,-0.0014,-0.0034,-0.0038,-0.0042,-0.0096,-0.0107,-0.0142,-0.0134,-0.0102,-0.0135,-0.0136,-0.0192,-0.02,-0.0215,-0.0264,-0.0269,-0.0256,-0.0258,-0.026,-0.0261,0,0,0,0,0,0,0,-0.0008,-0.0012,-0.0036,-0.0035,-0.004,-0.0074,-0.008,-0.0114,-0.0146,-0.0105,-0.0109,-0.0114,-0.0195,-0.0211,-0.0218,-0.027,-0.0256,-0.0259,-0.0261,-0.0263,-0.0333,-0.0332,0,0,0,0,0,0,0.0009,-0.0009,-0.0034,-0.0038,-0.0025,-0.0074,-0.0081,-0.008,-0.0145,-0.0155,-0.0113,-0.0116,-0.0205,-0.0213,-0.0222,-0.0226,-0.026,-0.0263,-0.0265,-0.0333,-0.0332,-0.0332,0,0,0,0,0,0,0.001,0.0008,-0.0031,-0.0024,-0.0031,-0.0073,-0.0073,-0.0081,-0.0095,-0.0151,-0.0161,-0.0117,-0.0205,-0.0216,-0.0243,-0.0231,-0.0265,-0.0268,-0.0333,-0.0333,-0.0332,-0.0245,0,0,0,0,0,0,0.0012,0.0009,0.0014,-0.0023,-0.0031,-0.0039,-0.0073,-0.0082,-0.0096,-0.0101,-0.0158,-0.0168,-0.0206,-0.0237,-0.0246,-0.0236,-0.0271,-0.0334,-0.0333,-0.0332,-0.0248,-0.0241,-0.0236,0,0,0,0,0,0.0013,0.003,0.0015,0.0011,-0.0022,-0.0038,-0.0045,-0.0079,-0.0096,-0.0094,-0.0133,-0.0166,-0.0239,-0.0239,-0.0251,-0.0242,-0.0334,-0.0333,-0.0332,-0.0251,-0.0243,-0.0236,0,0,0,0,0,0,0.0046,0.0025,0.0008,0.0016,-0.0006,-0.0046,-0.0047,-0.0071,-0.0102,-0.0105,-0.0161,-0.0173,-0.0193,-0.0229,-0.0228,-0.026,-0.0292,-0.0294,-0.0227,-0.0219,-0.0213,-0.0187,-0.0274,0,0,0,0,0,0.0056,0.0062,0.0032,0.0038,0.0032,-0.0008,-0.0019,-0.004,-0.007,-0.0084,-0.0124,-0.0166,-0.0199,-0.0217,-0.0253,-0.0269,-0.0304,-0.0271,-0.0265,-0.0259,-0.0247,-0.0288,-0.0284,-0.0329,-0.0329,-0.0329,0,0,0.007,0.0059,0.0062,0.0045,0.0025,0.003,-0.0016,-0.0023,-0.0019,-0.0091,-0.0098,-0.0145,-0.0199,-0.0216,-0.0228,-0.0244,-0.0266,-0.0258,-0.0252,-0.0243,-0.0286,-0.0282,-0.0278,-0.0328,-0.0329,-0.0329,0,0,0.0109,0.0093,0.0112,0.0102,0.0082,0.006,0.0064,0.003,0.0013,-0.0004,-0.0052,-0.0086,-0.0139,-0.0171,-0.0196,-0.0176,-0.0231,-0.0192,-0.0138,-0.0178,-0.0174,-0.0171,-0.021,-0.0211,-0.0188,-0.0187,-0.0187,0,0.0126,0.0147,0.0115,0.0131,0.0134,0.0082,0.0108,0.0083,0.0045,0.0039,0.0007,-0.0066,-0.0115,-0.0134,-0.013,-0.016,-0.0192,-0.016,-0.0168,-0.0166,-0.0165,-0.0205,-0.0207,-0.0183,-0.0184,-0.0184,-0.0184,0,0.0179,0.0195,0.0207,0.0213,0.0211,0.0223,0.0193,0.0185,0.0154,0.0126,0.0096,0.0025,-0.0015,-0.0042,-0.0082,-0.0094,-0.0123,-0.0154,-0.0183,-0.0154,-0.0199,-0.0203,-0.0177,-0.0178,-0.018,-0.0181,0,0,0.0223,0.0242,0.0247,0.0271,0.0258,0.0268,0.0274,0.0269,0.0284,0.0221,0.023,0.0151,0.0106,0.0076,0.0015,-0.0026,-0.0052,-0.0079,-0.0083,-0.0108,-0.0139,-0.0168,-0.0176,-0.0085,-0.0085,-0.0086,-0.0174,0,0.0276,0.0335,0.0325,0.0382,0.0413,0.038,0.0394,0.0379,0.0352,0.0345,0.026,0.0238,0.0153,0.0136,0.0082,-0.0012,-0.0059,-0.0025,-0.0171,-0.0175,-0.0197,-0.018,-0.014,-0.0216,-0.0178,-0.0179,-0.018,0,0.0333,0.0368,0.0435,0.0481,0.0491,0.051,0.0535,0.0544,0.0511,0.0491,0.0443,0.0373,0.0307,0.0229,0.008,0.0105,-0.0005,-0.009,-0.0096,-0.0154,-0.0211,-0.024,-0.0226,-0.0188,-0.0187,-0.0186,-0.0186,0,0.0392,0.0449,0.0509,0.0523,0.0557,0.058,0.0595,0.0585,0.0622,0.0584,0.0601,0.0491,0.0457,0.0301,0.0118,0.0101,-0.0049,-0.0097,-0.0231,-0.0235,-0.0244,-0.0248,-0.0204,-0.0204,-0.0204,-0.0203,-0.0203,0,0.0457,0.0507,0.0542,0.0575,0.0657,0.0649,0.0727,0.0722,0.0743,0.0801,0.0683,0.0701,0.0474,0.0356,0.0166,-0.0037,-0.0017,-0.0214,-0.0256,-0.0213,-0.0213,-0.0224,-0.0226,-0.0207,-0.0206,-0.0205,-0.0205,0,0.0513,0.0531,0.0611,0.0662,0.0687,0.0745,0.0832,0.0892,0.0889,0.0963,0.096,0.0871,0.0713,0.0472,0.0228,0.0047,-0.0161,-0.0243,-0.0178,-0.0211,-0.0335,-0.033,-0.0397,-0.0399,-0.0401,-0.0402,-0.0403,0,0.0546,0.059,0.0681,0.0741,0.0768,0.0855,0.0924,0.0962,0.1043,0.1073,0.1126,0.0999,0.0933,0.0562,0.0214,-0.0122,-0.0168,-0.0306,-0.034,-0.0319,-0.0353,-0.0346,-0.034,-0.0321,-0.0322,-0.0322,-0.0322,0,0.0612,0.0638,0.0705,0.0829,0.0915,0.1033,0.1136,0.1224,0.1275,0.1331,0.1381,0.1327,0.0981,0.065,0.0185,-0.0038,-0.0253,-0.0322,-0.031,-0.0277,-0.0254,-0.0285,-0.0281,-0.0324,-0.0324,-0.0324,-0.0323,-0.0323,0.0658,0.0719,0.0805,0.0927,0.1039,0.1185,0.1292,0.1411,0.154,0.1632,0.1574,0.1511,0.1126,0.0546,0.0139,-0.0278,-0.0267,-0.0408,-0.0404,-0.0401,-0.0374,-0.0355,-0.0439,-0.044,-0.044,-0.0441,-0.0441,0,0.0718,0.0786,0.0899,0.1046,0.118,0.1233,0.1421,0.1527,0.1683,0.1766,0.1797,0.1442,0.1064,0.0626,0.0001,-0.0378,-0.0395,-0.0483,-0.0425,-0.042,-0.0417,-0.0389,-0.0459,-0.0461,-0.0462,-0.0463,0,0,0.075,0.0856,0.0913,0.113,0.1247,0.1435,0.1548,0.1697,0.1802,0.1871,0.1852,0.1769,0.1222,0.077,0.0249,-0.0107,-0.0168,-0.0166,-0.011,0.0026,0.0034,-0.0333,-0.028,0,0,0,0,0]}],[{"header":{"parameterUnit":"m.s-1","parameterCategory":2,"la1":30.2991,"la2":30.254,"lo1":-89.0895,"lo2":-89.0444,"dy":0.0017,"dx":0.0017,"nx":28,"ny":28,"refTime":"2025-02-09T09:00:00:Z","depth":"4","parameterNumber":2,"parameterNumberName":"U-component_of_CURRENTS"},"data":[0,0,0,0,0,0,0,0,0,0,0,0,0,0,0,0,0,0,0,0,0,0,0,0,0,0,0,0,0,0,0,0,0,0,0,0,0,0,0,0,0,0,0,0,0,0,0,0,0,0,0,0,0,0,0,0,0,0,0.2004,0.2005,0,0.2093,0.2094,0.2095,0.2162,0.2163,0.2164,0.2165,0.2257,0.2259,0.2261,0,0,0,0,0,0,0,0,0,0,0,0,0,0.1877,0.1879,0.2004,0.2005,0.2007,0.2093,0.2094,0.2095,0.2162,0.2163,0.2164,0.2165,0.2257,0.2259,0.2261,0,0,0,0,0,0,0,0,0,0,0,0,0,0.1943,0.1879,0.2004,0.2053,0.2058,0.2093,0.2094,0.2095,0.2162,0.2163,0.2165,0.2166,0.2256,0.2259,0.2261,0.225,0,0,0.2269,0.227,0,0,0,0,0,0,0,0,0.1939,0.1947,0.2044,0.2049,0.2056,0.212,0.2083,0.2148,0.2162,0.212,0.2165,0.2167,0.2213,0.2219,0.2229,0.2254,0.2258,0.2269,0.227,0.2271,0.2272,0,0,0,0,0,0,0,0.1934,0.1944,0.2036,0.2046,0.2053,0.2065,0.2076,0.2095,0.2155,0.2123,0.2129,0.2143,0.2216,0.2226,0.2231,0.2259,0.2269,0.2271,0.2272,0.2273,0.2412,0.2414,0,0,0,0,0,0,0.1929,0.1939,0.2034,0.2039,0.2003,0.2067,0.2079,0.2096,0.2155,0.2167,0.2142,0.2146,0.2221,0.2228,0.2235,0.234,0.2271,0.2274,0.2275,0.2409,0.2412,0.2415,0,0,0,0,0,0,0.1926,0.1936,0.203,0.1993,0.2007,0.2068,0.2087,0.2097,0.2152,0.217,0.2181,0.2191,0.2223,0.2231,0.2296,0.234,0.2275,0.2277,0.2407,0.241,0.2413,0.2477,0,0,0,0,0,0,0.1922,0.1935,0.1964,0.1993,0.2009,0.2078,0.2086,0.2098,0.2157,0.2164,0.2215,0.2222,0.2224,0.2293,0.2299,0.2342,0.2279,0.2404,0.2408,0.2412,0.2472,0.2482,0.2491,0,0,0,0,0,0.1917,0.1944,0.1965,0.1978,0.2041,0.208,0.209,0.2135,0.2158,0.2188,0.2229,0.2223,0.2323,0.2297,0.2303,0.2348,0.2402,0.2407,0.2412,0.2468,0.248,0.249,0,0,0,0,0,0,0.1904,0.1954,0.1978,0.2021,0.2063,0.2093,0.2132,0.2158,0.2213,0.2235,0.2248,0.2259,0.2333,0.2333,0.2303,0.2402,0.2363,0.2369,0.2403,0.2415,0.2424,0.242,0.2281,0,0,0,0,0,0.1914,0.1953,0.1995,0.2035,0.206,0.2104,0.2134,0.2165,0.2208,0.2236,0.2272,0.2312,0.2349,0.2378,0.2407,0.2458,0.2468,0.2494,0.2503,0.2511,0.2514,0.2573,0.2588,0.2431,0.2431,0.2431,0,0,0.1919,0.1955,0.1978,0.2037,0.2075,0.2114,0.2127,0.2186,0.2227,0.2235,0.2318,0.2349,0.2372,0.2433,0.2466,0.2445,0.2563,0.2517,0.2523,0.2522,0.258,0.2595,0.2608,0.2434,0.2434,0.2433,0,0,0.1935,0.1986,0.2019,0.2058,0.2126,0.2151,0.2178,0.2236,0.2279,0.2349,0.237,0.243,0.2488,0.2513,0.253,0.2608,0.2611,0.2627,0.2671,0.2729,0.2742,0.2754,0.2793,0.2807,0.263,0.2631,0.2631,0,0.1944,0.199,0.2035,0.2076,0.2115,0.2172,0.2212,0.2259,0.2334,0.2374,0.2389,0.2499,0.2522,0.259,0.2622,0.2628,0.2659,0.2624,0.274,0.2752,0.2763,0.28,0.2815,0.2634,0.2634,0.2633,0.2633,0,0.197,0.2024,0.205,0.212,0.2166,0.2216,0.2277,0.2341,0.2402,0.2443,0.2544,0.2584,0.265,0.267,0.2671,0.2763,0.2759,0.2744,0.2708,0.2782,0.2817,0.2832,0.264,0.2638,0.2637,0.2636,0,0,0.1941,0.2048,0.2061,0.2103,0.2197,0.2231,0.2316,0.2396,0.2461,0.2543,0.2625,0.2698,0.2736,0.2759,0.278,0.2829,0.2932,0.2828,0.2829,0.2859,0.3064,0.2878,0.2876,0.2948,0.2951,0.2953,0.306,0,0.1952,0.2025,0.2081,0.2159,0.2201,0.2284,0.2355,0.2439,0.2521,0.2616,0.2681,0.2772,0.2765,0.2821,0.2869,0.2925,0.2974,0.2904,0.2994,0.2996,0.2816,0.2888,0.2962,0.307,0.3074,0.3076,0.3078,0,0.195,0.2004,0.2078,0.2186,0.2214,0.2275,0.2402,0.2473,0.2607,0.268,0.2779,0.284,0.2946,0.2926,0.3052,0.3016,0.3049,0.3075,0.3079,0.289,0.2836,0.2981,0.3104,0.3102,0.31,0.3098,0.3097,0,0.1887,0.1997,0.2059,0.2096,0.2225,0.2288,0.2366,0.2497,0.258,0.2736,0.2822,0.2935,0.3027,0.3088,0.3156,0.3127,0.3278,0.3238,0.3096,0.3084,0.319,0.3176,0.3319,0.3319,0.3319,0.3319,0.3318,0,0.1854,0.1908,0.2044,0.2076,0.2163,0.2266,0.2376,0.2474,0.263,0.2722,0.2858,0.2944,0.308,0.3177,0.3202,0.3196,0.3322,0.3113,0.3101,0.3215,0.3204,0.3201,0.3186,0.3322,0.3322,0.3321,0.332,0,0.1769,0.1861,0.1937,0.2083,0.2136,0.2198,0.2378,0.2449,0.262,0.275,0.2815,0.3002,0.3114,0.3217,0.3329,0.3245,0.3263,0.3228,0.336,0.3353,0.3017,0.3004,0.3065,0.306,0.3055,0.3051,0.3048,0,0.1727,0.176,0.192,0.1967,0.204,0.2157,0.2233,0.2421,0.2497,0.2749,0.2789,0.2984,0.3078,0.3089,0.3202,0.324,0.3202,0.3188,0.3073,0.3009,0.2993,0.2988,0.2982,0.304,0.3039,0.3038,0.3036,0,0.164,0.1716,0.1778,0.1875,0.1964,0.2047,0.2172,0.2219,0.2425,0.2617,0.2704,0.2777,0.2896,0.2966,0.3031,0.3045,0.3179,0.3137,0.3145,0.3037,0.2979,0.2967,0.2967,0.302,0.3022,0.3024,0.3025,0,0.1576,0.1594,0.1685,0.1755,0.1857,0.1892,0.1982,0.2073,0.2182,0.2456,0.2478,0.2677,0.2857,0.2867,0.2922,0.293,0.2873,0.2765,0.2792,0.2811,0.2678,0.2564,0.2476,0,0,0,0,0,0.1498,0.1499,0.1554,0.1614,0.1707,0.1765,0.1916,0.201,0.2219,0.2217,0.2344,0.2439,0.253,0.2635,0.2592,0.2807,0.2881,0.2744,0.2768,0.2928,0.2947,0.2813,0,0,0,0,0,0,0.1441,0.1484,0.1501,0.1481,0.1494,0.1574,0.1661,0.1803,0.1815,0.2041,0.2103,0.2285,0.2409,0.2525,0.2541,0.2574,0.2539,0.2878,0.2872,0.2917,0.2935,0.295,0.2819,0,0,0,0,0]},{"header":{"parameterUnit":"m.s-1","parameterCategory":2,"la1":30.2991,"la2":30.254,"lo1":-89.0895,"lo2":-89.0444,"dy":0.0017,"dx":0.0017,"nx":28,"ny":28,"refTime":"2025-02-09T09:00:00:Z","depth":"4","parameterNumber":3,"parameterNumberName":"V-component_of_CURRENTS"},"data":[0,0,0,0,0,0,0,0,0,0,0,0,0,0,0,0,0,0,0,0,0,0,0,0,0,0,0,0,0,0,0,0,0,0,0,0,0,0,0,0,0,0,0,0,0,0,0,0,0,0,0,0,0,0,0,0,0,0,0.0014,0.0014,0,-0.0039,-0.004,-0.0041,-0.008,-0.0081,-0.0081,-0.0081,-0.016,-0.0162,-0.0164,0,0,0,0,0,0,0,0,0,0,0,0,0,0.0036,0.0036,0.0014,0.0014,0.0013,-0.0039,-0.004,-0.0041,-0.008,-0.0081,-0.0081,-0.0081,-0.0159,-0.0161,-0.0164,0,0,0,0,0,0,0,0,0,0,0,0,0,0.0008,0.0036,0.0014,-0.0012,-0.0015,-0.0039,-0.004,-0.0041,-0.008,-0.0081,-0.0081,-0.0081,-0.0158,-0.0161,-0.0164,-0.0175,0,0,-0.0173,-0.0174,0,0,0,0,0,0,0,0,0.0009,0.0007,-0.0007,-0.001,-0.0013,-0.0052,-0.0061,-0.0087,-0.008,-0.0057,-0.0081,-0.0081,-0.0125,-0.0131,-0.0142,-0.0179,-0.0182,-0.0173,-0.0175,-0.0176,-0.0177,0,0,0,0,0,0,0,0.0011,0.0009,-0.0009,-0.0008,-0.0011,-0.0037,-0.0041,-0.0067,-0.009,-0.0059,-0.0062,-0.0065,-0.0127,-0.0139,-0.0144,-0.0183,-0.0173,-0.0175,-0.0177,-0.0178,-0.0233,-0.0233,0,0,0,0,0,0,0.0024,0.0011,-0.0007,-0.001,-0.0001,-0.0036,-0.0041,-0.0041,-0.0089,-0.0097,-0.0065,-0.0067,-0.0134,-0.0141,-0.0147,-0.0149,-0.0176,-0.0179,-0.018,-0.0234,-0.0233,-0.0233,0,0,0,0,0,0,0.0025,0.0023,-0.0005,-0.0,-0.0005,-0.0036,-0.0035,-0.0041,-0.0052,-0.0093,-0.0101,-0.0068,-0.0134,-0.0143,-0.0163,-0.0153,-0.018,-0.0182,-0.0234,-0.0233,-0.0233,-0.0163,0,0,0,0,0,0,0.0026,0.0024,0.0027,0.0001,-0.0005,-0.001,-0.0035,-0.0042,-0.0053,-0.0056,-0.0099,-0.0107,-0.0135,-0.0158,-0.0166,-0.0158,-0.0185,-0.0234,-0.0234,-0.0233,-0.0166,-0.016,-0.0156,0,0,0,0,0,0.0027,0.0039,0.0028,0.0026,0.0002,-0.0009,-0.0015,-0.0039,-0.0052,-0.0051,-0.008,-0.0105,-0.0161,-0.016,-0.0169,-0.0161,-0.0234,-0.0234,-0.0233,-0.0168,-0.0161,-0.0156,0,0,0,0,0,0,0.005,0.0035,0.0023,0.0029,0.0014,-0.0015,-0.0016,-0.0034,-0.0057,-0.006,-0.0101,-0.0111,-0.0126,-0.0154,-0.0152,-0.0177,-0.0202,-0.0203,-0.015,-0.0144,-0.0139,-0.0117,-0.0187,0,0,0,0,0,0.0058,0.0062,0.0041,0.0046,0.0041,0.0013,0.0004,-0.0011,-0.0034,-0.0044,-0.0074,-0.0106,-0.0131,-0.0144,-0.0172,-0.0183,-0.0217,-0.0186,-0.0181,-0.0176,-0.0165,-0.0207,-0.0204,-0.0231,-0.0231,-0.0231,0,0,0.0068,0.006,0.0063,0.0051,0.0036,0.0042,0.0007,0.0002,0.0006,-0.0049,-0.0053,-0.009,-0.0131,-0.0143,-0.0153,-0.0164,-0.0188,-0.0175,-0.0171,-0.0162,-0.0206,-0.0203,-0.0201,-0.0231,-0.0231,-0.0231,0,0,0.0097,0.0085,0.01,0.0094,0.008,0.0065,0.0068,0.0042,0.003,0.0019,-0.0018,-0.0045,-0.0084,-0.0108,-0.0127,-0.0111,-0.0161,-0.0125,-0.0081,-0.0121,-0.0119,-0.0117,-0.0162,-0.0166,-0.0121,-0.0121,-0.0121,0,0.011,0.0127,0.0103,0.0117,0.0121,0.0082,0.0103,0.0085,0.0057,0.0053,0.0028,-0.0029,-0.0065,-0.0079,-0.0074,-0.0099,-0.0133,-0.0098,-0.0113,-0.0113,-0.0112,-0.0159,-0.0163,-0.0118,-0.0118,-0.0118,-0.0119,0,0.015,0.0164,0.0174,0.0181,0.0182,0.0192,0.0172,0.0167,0.0144,0.0122,0.0099,0.0044,0.0014,-0.0007,-0.0036,-0.0049,-0.0079,-0.0102,-0.0125,-0.0105,-0.0156,-0.0162,-0.0113,-0.0114,-0.0115,-0.0116,0,0,0.018,0.02,0.0204,0.0225,0.0219,0.0228,0.0237,0.0236,0.0247,0.0199,0.0204,0.0148,0.0111,0.0088,0.0041,0.0003,-0.0031,-0.0042,-0.0046,-0.008,-0.0126,-0.0137,-0.0145,-0.0059,-0.0059,-0.006,-0.0165,0,0.022,0.0268,0.0265,0.0313,0.0339,0.0318,0.0334,0.0325,0.0303,0.0295,0.0228,0.0211,0.0149,0.0136,0.0088,0.0001,-0.0042,-0.0001,-0.0146,-0.0151,-0.0157,-0.0151,-0.0061,-0.0169,-0.017,-0.0171,-0.0172,0,0.0262,0.0291,0.0347,0.0391,0.04,0.0421,0.0446,0.0455,0.0428,0.0409,0.0371,0.0316,0.0257,0.0201,0.0061,0.0089,-0.0007,-0.0083,-0.0089,-0.0124,-0.0172,-0.0194,-0.0183,-0.0182,-0.0182,-0.0181,-0.018,0,0.03,0.0352,0.0403,0.0416,0.0452,0.0477,0.0494,0.0489,0.0516,0.0483,0.0489,0.0398,0.0359,0.0231,0.0072,0.0067,-0.009,-0.012,-0.0223,-0.0225,-0.0215,-0.0216,-0.0215,-0.0215,-0.0214,-0.0214,-0.0214,0,0.0343,0.0386,0.0428,0.0456,0.0527,0.053,0.0595,0.0593,0.0607,0.0641,0.0553,0.0546,0.0365,0.0253,0.01,-0.0078,-0.0073,-0.0211,-0.0249,-0.0185,-0.0181,-0.022,-0.0219,-0.0218,-0.0217,-0.0216,-0.0216,0,0.0375,0.0399,0.0466,0.0521,0.0547,0.0597,0.0676,0.0721,0.0717,0.0758,0.0755,0.0657,0.0501,0.0311,0.0095,-0.0032,-0.0206,-0.0271,-0.0187,-0.022,-0.0324,-0.0318,-0.0392,-0.0393,-0.0394,-0.0395,-0.0396,0,0.0392,0.0428,0.0517,0.0567,0.0597,0.0675,0.0735,0.0771,0.0821,0.0822,0.0842,0.0717,0.0621,0.0318,0.01,-0.0192,-0.0237,-0.0327,-0.0327,-0.031,-0.034,-0.0333,-0.0326,-0.0397,-0.0397,-0.0398,-0.0398,0,0.0425,0.0456,0.0513,0.0617,0.0694,0.0791,0.0872,0.0921,0.0957,0.0961,0.0922,0.0764,0.0582,0.0328,0.01,-0.0112,-0.0267,-0.0339,-0.0338,-0.0338,-0.0317,-0.0344,-0.0337,-0.0401,-0.0401,-0.0401,-0.04,0,0.0448,0.0492,0.0566,0.0664,0.0766,0.0867,0.0914,0.097,0.1019,0.1016,0.0995,0.0799,0.0685,0.0368,0.0157,-0.0051,-0.0112,-0.0177,-0.0187,-0.0186,-0.0101,-0.0042,-0.0068,0,0,0,0,0,0.0467,0.0518,0.0606,0.0714,0.082,0.0885,0.0989,0.1026,0.1063,0.1053,0.1032,0.0864,0.0552,0.0412,0.0202,0.0113,-0.0164,-0.0142,-0.0248,-0.042,-0.0416,-0.0353,0,0,0,0,0,0,0.0476,0.0554,0.0603,0.0739,0.082,0.0943,0.1015,0.1045,0.1039,0.1039,0.0879,0.0806,0.0501,0.0673,0.0197,0.0131,0.0034,-0.0287,-0.0292,-0.0423,-0.0419,-0.0416,-0.035,0,0,0,0,0]}]]